User: anonymous   Login
Location: Owatonna
(44.0840°N, 93.2260°W)
Time: 15:36:19
(UTC-05:00)
Language:

Cosmos 1500 Rocket - Orbit

View from above orbital plane
View from above orbital plane
View from above satellite
View from above satellite

Ground track
Ground track

The orbit data is extracted from the following two-line orbital elements,

1 14373U 83099B   16270.13375288  .00000108  00000-0  10186-4 0  9999
2 14373  82.5398 131.3191 0020800  22.1685  92.9754 14.83633210781720
Epoch (UTC): 26 September 2016 03:12:36
Eccentricity: 0.0020800
inclination: 82.5398°
perigee height: 603 km
apogee height: 632 km
right ascension of ascending node: 131.3191°
argument of perigee: 22.1685°
revolutions per day: 14.83633210
mean anomaly at epoch: 92.9754°
orbit number at epoch: 78172

The dashed part of the orbit path shows where the satellite is in the earth's shadow,  

DLR